E-KAGAKU-1

Last updated on Fri Mar 20 2026 00:02:11 GMT+0000 (Coordinated Universal Time)

1 65943U 98067XQ 26078.05677518 .00207196 00000+0 86567-3 0 9998 2 65943 51.6240 8.6477 0005595 139.9171 220.2246 15.84491572 24981

Satellite not in orbit

E-KAGAKU-1